Weather History for KLNP - February, 2013

Change the Weather History Date:

Wednesday, February 20, 2013

  Actual Average (KTRI) Record (KTRI)
Temperature  
Mean Temperature 29 °F 40 °F  
Max Temperature 35 °F 51 °F 75 °F (2014)
Min Temperature 23 °F 29 °F 13 °F (1979)
Degree Days  
Heating Degree Days 36 25  
Month to date heating degree days 539  
Since 1 July heating degree days 3193  
Cooling Degree Days 0 0  
Month to date cooling degree days 0  
Year to date cooling degree days 0  
Moisture  
Dew Point 15 °F    
Average Humidity 56    
Maximum Humidity 74    
Minimum Humidity 41    
Precipitation  
Precipitation 0.00 in 0.12 in 1.06 in (1967)
Month to date precipitation 2.49  
Year to date precipitation 5.86  
Snow  
Snow 0.00 in 0.10 in - ()
Month to date snowfall 2.5  
Since 1 July snowfall 9.9  
Snow Depth -    
Sea Level Pressure  
Sea Level Pressure 30.10 in    
Wind  
Wind Speed 8 mph (WNW)    
Max Wind Speed 15 mph    
Max Gust Speed 25 mph    
Visibility 10 miles    
Events      
T = Trace of Precipitation, MM = Missing Value Source: NWS Daily Summary

Daily Weather History Graph

Daily Weather History Graph

Search for Another Location

Airport or City:

Trip Planner

Search our weather history database for the weather conditions in past years. The results will help you decide how hot, cold, wet, or windy it might be!

Date:

Astronomy

Feb. 20, 2013 Rise Set
Actual Time 7:12 AM EST 6:15 PM EST
Civil Twilight 6:46 AM EST 6:42 PM EST
Nautical Twilight 6:15 AM EST 7:12 PM EST
Astronomical Twilight 5:45 AM EST 7:42 PM EST
Moon 1:40 PM EST (2/20) 3:27 AM EST (2/20)
Length of Visible Light 11h 55m
Length of Day
11h 03m
Waxing Gibbous, 76% of the Moon is Illuminated
Feb 20
Waxing Gibbous
Feb 25
Full
Mar 4
Last Quarter
Mar 11
New
Mar 19
First Quarter

Hourly Weather History & Observations

Time (EST) Temp. Windchill Dew Point Humidity Pressure Visibility Wind Dir Wind Speed Gust Speed Precip Events Conditions
12:15 AM 30.2 °F 22.6 °F 17.6 °F 60% 30.03 in 10.0 mi West 8.1 mph 11.5 mph N/A   Clear
12:35 AM 30.2 °F 23.4 °F 17.6 °F 60% 30.04 in 10.0 mi West 6.9 mph - N/A   Clear
12:55 AM 28.4 °F 19.7 °F 17.6 °F 64% 30.04 in 10.0 mi West 9.2 mph - N/A   Clear
1:15 AM 28.4 °F 18.0 °F 17.6 °F 64% 30.04 in 10.0 mi West 12.7 mph 25.3 mph N/A   Clear
1:35 AM 28.4 °F 17.5 °F 17.6 °F 64% 30.04 in 10.0 mi West 13.8 mph 19.6 mph N/A   Clear
1:55 AM 28.4 °F 18.0 °F 17.6 °F 64% 30.04 in 10.0 mi West 12.7 mph 19.6 mph N/A   Clear
2:15 AM 28.4 °F 19.1 °F 17.6 °F 64% 30.03 in 10.0 mi West 10.4 mph 20.7 mph N/A   Clear
2:35 AM 28.4 °F 19.7 °F 14.0 °F 55% 30.04 in 10.0 mi West 9.2 mph - N/A   Clear
2:55 AM 28.4 °F 18.0 °F 14.0 °F 55% 30.04 in 10.0 mi West 12.7 mph 19.6 mph N/A   Clear
3:15 AM 26.6 °F 16.8 °F 14.0 °F 59% 30.04 in 10.0 mi West 10.4 mph 18.4 mph N/A   Clear
3:35 AM 26.6 °F 14.7 °F 14.0 °F 59% 30.04 in 10.0 mi West 15.0 mph 20.7 mph N/A   Clear
3:55 AM 26.6 °F 18.2 °F 14.0 °F 59% 30.04 in 10.0 mi West 8.1 mph - N/A   Clear
4:15 AM 26.6 °F 16.2 °F 14.0 °F 59% 30.04 in 10.0 mi West 11.5 mph - N/A   Clear
4:35 AM 26.6 °F 17.5 °F 14.0 °F 59% 30.05 in 10.0 mi West 9.2 mph - N/A   Clear
4:55 AM 26.6 °F 20.0 °F 14.0 °F 59% 30.05 in 10.0 mi West 5.8 mph - N/A   Clear
5:15 AM 24.8 °F 15.3 °F 14.0 °F 64% 30.05 in 10.0 mi West 9.2 mph - N/A   Clear
5:35 AM 24.8 °F 19.1 °F 14.0 °F 64% 30.07 in 10.0 mi West 4.6 mph - N/A   Clear
5:55 AM 23.0 °F 17.0 °F 14.0 °F 68% 30.07 in 10.0 mi West 4.6 mph - N/A   Clear
6:15 AM 23.0 °F 18.4 °F 14.0 °F 68% 30.07 in 10.0 mi West 3.5 mph - N/A   Clear
6:35 AM 23.0 °F 17.0 °F 14.0 °F 68% 30.07 in 10.0 mi West 4.6 mph - N/A   Clear
7:15 AM 23.0 °F 15.8 °F 14.0 °F 68% 30.09 in 10.0 mi West 5.8 mph - N/A   Clear
7:35 AM 23.0 °F 17.0 °F 14.0 °F 68% 30.09 in 10.0 mi West 4.6 mph - N/A   Clear
7:55 AM 23.0 °F 15.8 °F 15.8 °F 74% 30.09 in 10.0 mi WNW 5.8 mph - N/A   Clear
8:15 AM 23.0 °F 15.8 °F 15.8 °F 74% 30.10 in 10.0 mi WNW 5.8 mph - N/A   Clear
9:15 AM 26.6 °F 20.0 °F 15.8 °F 64% 30.11 in 10.0 mi WSW 5.8 mph - N/A   Clear
9:35 AM 26.6 °F 21.2 °F 17.6 °F 69% 30.11 in 10.0 mi West 4.6 mph - N/A   Clear
10:15 AM 28.4 °F 23.3 °F 15.8 °F 59% 30.11 in 10.0 mi WNW 4.6 mph - N/A   Clear
10:35 AM 28.4 °F 21.2 °F 14.0 °F 55% 30.12 in 10.0 mi West 6.9 mph - N/A   Clear
10:55 AM 30.2 °F 21.9 °F 12.2 °F 47% 30.11 in 10.0 mi WSW 9.2 mph - N/A   Clear
11:15 AM 30.2 °F 23.4 °F 14.0 °F 51% 30.11 in 10.0 mi WSW 6.9 mph - N/A   Clear
11:35 AM 32.0 °F 24.8 °F 14.0 °F 48% 30.11 in 10.0 mi SW 8.1 mph - N/A   Clear
11:55 AM 32.0 °F 23.6 °F 14.0 °F 48% 30.11 in 10.0 mi WSW 10.4 mph - N/A   Clear
12:15 PM 32.0 °F 24.8 °F 12.2 °F 44% 30.11 in 10.0 mi West 8.1 mph - N/A   Clear
12:35 PM 32.0 °F 25.6 °F 14.0 °F 48% 30.11 in 10.0 mi WSW 6.9 mph - N/A   Clear
12:55 PM 33.8 °F 26.4 °F 12.2 °F 41% 30.10 in 10.0 mi WNW 9.2 mph - N/A   Clear
1:15 PM 33.8 °F 26.4 °F 12.2 °F 41% 30.10 in 10.0 mi WNW 9.2 mph 16.1 mph N/A   Clear
1:35 PM 33.8 °F 27.0 °F 12.2 °F 41% 30.09 in 10.0 mi NW 8.1 mph 16.1 mph N/A   Clear
1:55 PM 33.8 °F 25.8 °F 12.2 °F 41% 30.09 in 10.0 mi WNW 10.4 mph - N/A   Clear
2:15 PM 33.8 °F 27.0 °F 12.2 °F 41% 30.09 in 10.0 mi NW 8.1 mph - N/A   Clear
2:35 PM 35.6 °F 29.9 °F 14.0 °F 41% 30.09 in 10.0 mi WNW 6.9 mph - N/A   Clear
2:55 PM 33.8 °F 27.0 °F 14.0 °F 44% 30.09 in 10.0 mi WNW 8.1 mph - N/A   Clear
3:15 PM 35.6 °F 30.7 °F 15.8 °F 44% 30.09 in 10.0 mi NNW 5.8 mph - N/A   Clear
3:35 PM 33.8 °F 27.0 °F 14.0 °F 44% 30.09 in 10.0 mi WNW 8.1 mph - N/A   Clear
3:55 PM 33.8 °F 27.0 °F 14.0 °F 44% 30.09 in 10.0 mi NNW 8.1 mph - N/A   Clear
4:15 PM 33.8 °F 27.0 °F 14.0 °F 44% 30.09 in 10.0 mi NW 8.1 mph - N/A   Clear
4:35 PM 33.8 °F 28.6 °F 14.0 °F 44% 30.10 in 10.0 mi NW 5.8 mph - N/A   Clear
4:55 PM 32.0 °F 24.2 °F 14.0 °F 48% 30.11 in 10.0 mi WNW 9.2 mph - N/A   Clear
5:15 PM 32.0 °F 25.6 °F 14.0 °F 48% 30.12 in 10.0 mi WNW 6.9 mph - N/A   Clear
5:35 PM 32.0 °F 25.6 °F 14.0 °F 48% 30.12 in 10.0 mi WNW 6.9 mph - N/A   Clear
5:55 PM 30.2 °F 25.4 °F 14.0 °F 51% 30.12 in 10.0 mi NW 4.6 mph - N/A   Clear
6:15 PM 30.2 °F 26.7 °F 15.8 °F 55% 30.12 in 10.0 mi NNW 3.5 mph - N/A   Clear
6:35 PM 30.2 °F 24.3 °F 14.0 °F 51% 30.14 in 10.0 mi WNW 5.8 mph - N/A   Clear
6:55 PM 30.2 °F 26.7 °F 15.8 °F 55% 30.14 in 10.0 mi NNW 3.5 mph - N/A   Clear
7:15 PM 30.2 °F 24.3 °F 15.8 °F 55% 30.15 in 10.0 mi NW 5.8 mph - N/A   Clear
7:35 PM 30.2 °F 26.7 °F 14.0 °F 51% 30.15 in 10.0 mi WNW 3.5 mph - N/A   Clear
7:55 PM 28.4 °F 24.6 °F 14.0 °F 55% 30.15 in 10.0 mi NW 3.5 mph - N/A   Clear
8:15 PM 28.4 °F 23.3 °F 14.0 °F 55% 30.14 in 10.0 mi NW 4.6 mph - N/A   Clear
8:35 PM 28.4 °F - 15.8 °F 59% 30.14 in 10.0 mi Calm Calm - N/A   Clear
8:55 PM 28.4 °F - 15.8 °F 59% 30.15 in 10.0 mi Calm Calm - N/A   Clear
9:15 PM 28.4 °F - 15.8 °F 59% 30.15 in 10.0 mi Calm Calm - N/A   Clear
9:35 PM 28.4 °F - 15.8 °F 59% 30.14 in 10.0 mi Calm Calm - N/A   Clear
9:55 PM 28.4 °F 23.3 °F 15.8 °F 59% 30.14 in 10.0 mi NNW 4.6 mph - N/A   Clear
10:15 PM 26.6 °F - 15.8 °F 64% 30.14 in 10.0 mi Calm Calm - N/A   Clear
10:35 PM 26.6 °F - 15.8 °F 64% 30.15 in 10.0 mi Calm Calm - N/A   Clear
10:55 PM 26.6 °F - 15.8 °F 64% 30.14 in 10.0 mi Calm Calm - N/A   Clear
11:15 PM 26.6 °F - 15.8 °F 64% 30.14 in 10.0 mi Calm Calm - N/A   Clear
11:35 PM 24.8 °F - 15.8 °F 69% 30.14 in 10.0 mi Calm Calm - N/A   Clear
11:55 PM 24.8 °F - 15.8 °F 69% 30.14 in 10.0 mi Calm Calm - N/A   Scattered Clouds